QPF
0.06 0.07 0.07 0.05 0.04 0.04 0.04 0.06 0.08 0.04 0.01 0.00 0.00 0.00 0.00 0.00 0.00 0.00 0.00 0.01 0.02 0.03 0.04 0.04 0.05 0.11 0.25 0.47 0.66 0.90 1.04 0.88 0.60 0.39 0.29 0.30 0.34 0.38
0.09 0.09 0.08 0.07 0.06 0.05 0.05 0.05 0.06 0.07 0.03 0.00 0.00 0.00 0.00 0.00 0.00 0.00 0.00 0.00 0.01 0.02 0.04 0.05 0.04 0.06 0.13 0.26 0.43 0.60 0.88 1.02 0.85 0.60 0.41 0.34 0.32 0.34
0.08 0.08 0.07 0.06 0.06 0.04 0.04 0.04 0.04 0.06 0.05 0.01 0.00 0.00 0.00 0.00 0.00 0.00 0.00 0.00 0.01 0.02 0.03 0.05 0.05 0.05 0.08 0.14 0.25 0.39 0.56 0.82 0.91 0.76 0.55 0.43 0.37 0.32
0.04 0.04 0.03 0.04 0.04 0.03 0.04 0.04 0.03 0.03 0.04 0.02 0.00 0.00 0.00 0.00 0.00 0.00 0.00 0.00 0.00 0.01 0.03 0.05 0.07 0.07 0.07 0.09 0.14 0.23 0.35 0.49 0.66 0.68 0.57 0.45 0.40 0.35
0.01 0.01 0.01 0.02 0.03 0.03 0.03 0.04 0.03 0.02 0.03 0.03 0.01 0.00 0.00 0.00 0.00 0.00 0.01 0.00 0.00 0.01 0.02 0.04 0.07 0.09 0.09 0.08 0.10 0.14 0.21 0.26 0.37 0.49 0.49 0.41 0.38 0.37
0.00 0.00 0.00 0.02 0.05 0.05 0.04 0.04 0.02 0.02 0.03 0.03 0.02 0.02 0.02 0.01 0.01 0.01 0.01 0.01 0.01 0.01 0.01 0.03 0.06 0.10 0.10 0.09 0.07 0.08 0.12 0.19 0.24 0.33 0.40 0.40 0.35 0.33
0.00 0.00 0.00 0.01 0.04 0.06 0.06 0.07 0.05 0.04 0.04 0.04 0.05 0.06 0.05 0.05 0.03 0.02 0.01 0.02 0.01 0.01 0.02 0.03 0.06 0.08 0.09 0.09 0.07 0.06 0.07 0.11 0.17 0.25 0.32 0.37 0.37 0.33
0.00 0.00 0.00 0.00 0.03 0.05 0.03 0.05 0.07 0.09 0.09 0.07 0.07 0.08 0.08 0.07 0.04 0.02 0.02 0.02 0.03 0.02 0.02 0.04 0.07 0.09 0.10 0.09 0.07 0.05 0.05 0.08 0.13 0.19 0.26 0.31 0.34 0.35
0.00 0.00 0.00 0.00 0.04 0.09 0.02 0.02 0.04 0.06 0.09 0.09 0.08 0.08 0.07 0.06 0.04 0.02 0.01 0.02 0.03 0.04 0.03 0.05 0.08 0.11 0.12 0.11 0.10 0.06 0.05 0.05 0.08 0.14 0.22 0.29 0.34 0.38
0.00 0.00 0.00 0.01 0.05 0.10 0.02 0.01 0.04 0.06 0.07 0.08 0.08 0.07 0.06 0.05 0.04 0.02 0.01 0.01 0.02 0.05 0.04 0.05 0.09 0.12 0.13 0.12 0.10 0.07 0.05 0.05 0.06 0.09 0.15 0.24 0.33 0.41
0.00 0.00 0.00 0.02 0.04 0.05 0.01 0.02 0.03 0.04 0.04 0.06 0.06 0.04 0.03 0.03 0.03 0.02 0.01 0.01 0.02 0.05 0.06 0.06 0.10 0.13 0.15 0.14 0.11 0.08 0.06 0.05 0.06 0.07 0.11 0.18 0.28 0.42
0.00 0.00 0.00 0.03 0.03 0.03 0.02 0.02 0.05 0.04 0.03 0.03 0.03 0.02 0.01 0.02 0.02 0.03 0.02 0.02 0.03 0.05 0.08 0.07 0.12 0.17 0.21 0.18 0.12 0.09 0.06 0.06 0.07 0.08 0.10 0.14 0.23 0.34
0.00 0.00 0.00 0.02 0.01 0.01 0.02 0.03 0.06 0.05 0.03 0.03 0.02 0.01 0.01 0.01 0.02 0.02 0.03 0.03 0.03 0.04 0.07 0.08 0.14 0.18 0.23 0.24 0.17 0.11 0.08 0.07 0.09 0.11 0.13 0.16 0.18 0.21
0.00 0.00 0.00 0.01 0.00 0.00 0.00 0.01 0.02 0.02 0.01 0.01 0.01 0.01 0.01 0.01 0.01 0.02 0.02 0.02 0.03 0.03 0.05 0.08 0.13 0.18 0.21 0.23 0.19 0.14 0.13 0.12 0.11 0.12 0.14 0.21 0.24 0.20
0.00 0.00 0.00 0.00 0.00 0.00 0.00 0.00 0.00 0.00 0.01 0.01 0.01 0.01 0.01 0.01 0.01 0.01 0.01 0.01 0.02 0.02 0.04 0.06 0.11 0.17 0.21 0.24 0.23 0.15 0.15 0.19 0.18 0.15 0.16 0.19 0.20 0.16
0.00 0.00 0.00 0.00 0.00 0.00 0.00 0.00 0.00 0.00 0.01 0.01 0.01 0.01 0.00 0.00 0.01 0.01 0.01 0.02 0.02 0.02 0.03 0.05 0.10 0.16 0.22 0.26 0.25 0.18 0.11 0.18 0.25 0.20 0.17 0.19 0.18 0.11
0.00 0.00 0.00 0.00 0.00 0.00 0.00 0.00 0.00 0.00 0.00 0.00 0.01 0.01 0.00 0.00 0.01 0.01 0.02 0.02 0.03 0.04 0.04 0.05 0.09 0.16 0.25 0.32 0.30 0.24 0.13 0.13 0.19 0.19 0.15 0.18 0.23 0.16
0.00 0.00 0.00 0.00 0.00 0.00 0.00 0.00 0.00 0.00 0.00 0.00 0.00 0.00 0.01 0.01 0.01 0.01 0.01 0.03 0.05 0.06 0.06 0.06 0.08 0.13 0.25 0.36 0.37 0.29 0.17 0.11 0.16 0.18 0.14 0.14 0.23 0.24
0.00 0.00 0.00 0.00 0.00 0.00 0.00 0.00 0.00 0.00 0.00 0.00 0.00 0.00 0.01 0.01 0.01 0.01 0.01 0.02 0.04 0.07 0.08 0.08 0.09 0.12 0.23 0.37 0.42 0.36 0.20 0.10 0.13 0.22 0.21 0.15 0.17 0.25
0.01 0.01 0.01 0.00 0.00 0.00 0.00 0.00 0.00 0.00 0.00 0.00 0.00 0.00 0.00 0.01 0.01 0.01 0.01 0.02 0.04 0.07 0.10 0.10 0.12 0.14 0.18 0.27 0.36 0.39 0.34 0.16 0.10 0.19 0.26 0.23 0.20 0.25
0.01 0.02 0.02 0.01 0.01 0.00 0.00 0.00 0.00 0.00 0.00 0.00 0.00 0.00 0.00 0.00 0.01 0.01 0.01 0.02 0.03 0.07 0.10 0.12 0.16 0.17 0.19 0.23 0.28 0.36 0.40 0.33 0.15 0.11 0.18 0.21 0.21 0.21
0.01 0.02 0.02 0.02 0.01 0.01 0.00 0.00 0.00 0.00 0.00 0.00 0.00 0.00 0.00 0.00 0.01 0.01 0.01 0.02 0.03 0.06 0.10 0.14 0.18 0.21 0.24 0.27 0.30 0.33 0.39 0.43 0.36 0.21 0.14 0.12 0.11 0.12
0.02 0.02 0.02 0.03 0.02 0.01 0.01 0.00 0.00 0.00 0.00 0.00 0.00 0.00 0.00 0.00 0.00 0.01 0.01 0.02 0.03 0.04 0.08 0.13 0.18 0.22 0.28 0.33 0.33 0.32 0.32 0.36 0.38 0.33 0.32 0.23 0.15 0.10
MSLP
1019.95 1019.40 1018.84 1018.22 1017.50 1016.65 1015.67 1014.57 1013.39 1012.19 1011.01 1009.92 1008.98 1008.22 1007.64 1007.22 1006.94 1006.74 1006.56 1006.37 1006.11 1005.78 1005.38 1004.93 1004.47 1004.05 1003.71 1003.50 1003.46 1003.60 1003.92 1004.42 1005.08 1005.87 1006.77 1007.73 1008.72 1009.73
1019.59 1018.97 1018.34 1017.67 1016.94 1016.09 1015.14 1014.09 1012.96 1011.80 1010.66 1009.59 1008.64 1007.85 1007.22 1006.74 1006.40 1006.14 1005.93 1005.73 1005.51 1005.23 1004.91 1004.56 1004.20 1003.86 1003.58 1003.39 1003.33 1003.42 1003.67 1004.08 1004.64 1005.35 1006.17 1007.09 1008.07 1009.07
1019.35 1018.64 1017.94 1017.20 1016.43 1015.58 1014.65 1013.64 1012.58 1011.49 1010.41 1009.39 1008.46 1007.64 1006.95 1006.39 1005.94 1005.58 1005.28 1005.02 1004.76 1004.51 1004.24 1003.97 1003.71 1003.48 1003.30 1003.19 1003.17 1003.26 1003.48 1003.84 1004.34 1004.97 1005.72 1006.59 1007.54 1008.53
1019.25 1018.45 1017.66 1016.86 1016.04 1015.18 1014.27 1013.32 1012.33 1011.33 1010.33 1009.36 1008.45 1007.62 1006.87 1006.20 1005.62 1005.12 1004.68 1004.29 1003.96 1003.67 1003.42 1003.22 1003.05 1002.94 1002.87 1002.86 1002.93 1003.07 1003.31 1003.65 1004.11 1004.70 1005.40 1006.22 1007.13 1008.10
1019.24 1018.38 1017.53 1016.67 1015.81 1014.94 1014.05 1013.15 1012.24 1011.32 1010.40 1009.50 1008.62 1007.78 1006.96 1006.19 1005.47 1004.80 1004.19 1003.66 1003.21 1002.85 1002.57 1002.39 1002.30 1002.28 1002.33 1002.43 1002.60 1002.82 1003.11 1003.47 1003.93 1004.49 1005.15 1005.94 1006.81 1007.76
1019.26 1018.38 1017.49 1016.60 1015.72 1014.85 1013.98 1013.12 1012.27 1011.44 1010.60 1009.76 1008.92 1008.07 1007.22 1006.35 1005.50 1004.68 1003.90 1003.21 1002.62 1002.15 1001.81 1001.62 1001.55 1001.59 1001.72 1001.93 1002.19 1002.49 1002.84 1003.24 1003.71 1004.27 1004.93 1005.69 1006.54 1007.48
1019.25 1018.38 1017.49 1016.60 1015.72 1014.85 1014.01 1013.19 1012.39 1011.62 1010.85 1010.08 1009.28 1008.45 1007.57 1006.65 1005.70 1004.75 1003.84 1002.99 1002.26 1001.68 1001.26 1001.00 1000.92 1000.97 1001.15 1001.40 1001.73 1002.09 1002.49 1002.94 1003.44 1004.01 1004.67 1005.42 1006.27 1007.20
1019.14 1018.32 1017.48 1016.61 1015.75 1014.89 1014.07 1013.27 1012.52 1011.79 1011.08 1010.36 1009.61 1008.81 1007.95 1007.01 1006.02 1005.00 1003.99 1003.04 1002.19 1001.50 1000.97 1000.64 1000.49 1000.51 1000.66 1000.92 1001.26 1001.66 1002.09 1002.56 1003.08 1003.67 1004.34 1005.11 1005.97 1006.91
1018.92 1018.18 1017.40 1016.59 1015.75 1014.92 1014.11 1013.33 1012.59 1011.89 1011.22 1010.54 1009.85 1009.10 1008.28 1007.38 1006.40 1005.38 1004.33 1003.32 1002.40 1001.61 1000.99 1000.55 1000.31 1000.24 1000.33 1000.55 1000.85 1001.23 1001.66 1002.14 1002.68 1003.28 1003.97 1004.75 1005.62 1006.58
1018.60 1017.96 1017.26 1016.51 1015.72 1014.91 1014.11 1013.33 1012.59 1011.90 1011.24 1010.61 1009.96 1009.27 1008.52 1007.69 1006.77 1005.79 1004.78 1003.77 1002.82 1001.97 1001.27 1000.74 1000.39 1000.21 1000.20 1000.32 1000.56 1000.88 1001.27 1001.74 1002.27 1002.89 1003.59 1004.38 1005.28 1006.26
1018.25 1017.70 1017.09 1016.41 1015.67 1014.89 1014.10 1013.31 1012.56 1011.85 1011.19 1010.56 1009.95 1009.32 1008.64 1007.90 1007.08 1006.19 1005.25 1004.29 1003.36 1002.49 1001.74 1001.12 1000.67 1000.38 1000.25 1000.27 1000.41 1000.66 1001.00 1001.43 1001.95 1002.56 1003.26 1004.07 1004.98 1005.97
1017.93 1017.48 1016.95 1016.34 1015.66 1014.91 1014.11 1013.31 1012.53 1011.80 1011.11 1010.47 1009.87 1009.28 1008.68 1008.02 1007.31 1006.52 1005.68 1004.80 1003.92 1003.07 1002.30 1001.63 1001.10 1000.71 1000.48 1000.39 1000.43 1000.60 1000.88 1001.27 1001.76 1002.36 1003.06 1003.87 1004.79 1005.79
1017.72 1017.35 1016.90 1016.36 1015.73 1015.01 1014.22 1013.41 1012.60 1011.82 1011.09 1010.43 1009.82 1009.24 1008.67 1008.09 1007.46 1006.77 1006.03 1005.24 1004.43 1003.62 1002.86 1002.18 1001.60 1001.15 1000.84 1000.66 1000.63 1000.74 1000.96 1001.31 1001.78 1002.36 1003.05 1003.85 1004.76 1005.76
1017.66 1017.35 1016.97 1016.49 1015.91 1015.22 1014.46 1013.64 1012.80 1011.98 1011.21 1010.50 1009.86 1009.27 1008.71 1008.15 1007.58 1006.96 1006.30 1005.60 1004.86 1004.11 1003.39 1002.72 1002.13 1001.65 1001.29 1001.08 1001.00 1001.06 1001.25 1001.57 1002.02 1002.58 1003.25 1004.04 1004.92 1005.90
1017.76 1017.49 1017.15 1016.74 1016.21 1015.56 1014.82 1014.01 1013.17 1012.32 1011.51 1010.75 1010.06 1009.43 1008.84 1008.28 1007.73 1007.15 1006.54 1005.89 1005.22 1004.53 1003.86 1003.22 1002.66 1002.18 1001.83 1001.60 1001.50 1001.55 1001.72 1002.03 1002.46 1003.01 1003.67 1004.43 1005.29 1006.24
1017.97 1017.72 1017.43 1017.05 1016.58 1015.98 1015.29 1014.51 1013.67 1012.82 1011.98 1011.19 1010.45 1009.76 1009.13 1008.54 1007.96 1007.39 1006.79 1006.18 1005.55 1004.91 1004.29 1003.71 1003.18 1002.75 1002.42 1002.21 1002.13 1002.18 1002.36 1002.67 1003.09 1003.63 1004.27 1005.01 1005.84 1006.77
1018.24 1018.00 1017.72 1017.38 1016.95 1016.41 1015.77 1015.05 1014.26 1013.43 1012.60 1011.79 1011.01 1010.29 1009.61 1008.96 1008.34 1007.74 1007.14 1006.53 1005.92 1005.32 1004.74 1004.21 1003.74 1003.35 1003.07 1002.90 1002.85 1002.92 1003.12 1003.44 1003.86 1004.40 1005.03 1005.75 1006.57 1007.47
1018.51 1018.25 1017.97 1017.65 1017.26 1016.78 1016.21 1015.56 1014.84 1014.07 1013.28 1012.49 1011.72 1010.97 1010.25 1009.56 1008.90 1008.25 1007.62 1007.00 1006.40 1005.82 1005.28 1004.79 1004.37 1004.03 1003.79 1003.66 1003.65 1003.75 1003.97 1004.30 1004.74 1005.28 1005.91 1006.63 1007.44 1008.33
1018.72 1018.42 1018.12 1017.80 1017.44 1017.02 1016.53 1015.97 1015.34 1014.67 1013.96 1013.23 1012.49 1011.75 1011.02 1010.31 1009.62 1008.94 1008.28 1007.64 1007.03 1006.46 1005.93 1005.47 1005.09 1004.79 1004.59 1004.50 1004.52 1004.65 1004.89 1005.24 1005.69 1006.24 1006.88 1007.62 1008.44 1009.33
1018.86 1018.50 1018.16 1017.83 1017.48 1017.11 1016.70 1016.23 1015.72 1015.17 1014.56 1013.92 1013.26 1012.57 1011.87 1011.17 1010.46 1009.77 1009.09 1008.43 1007.81 1007.24 1006.72 1006.28 1005.92 1005.65 1005.48 1005.41 1005.45 1005.60 1005.86 1006.23 1006.69 1007.26 1007.93 1008.69 1009.53 1010.45
1018.93 1018.51 1018.11 1017.75 1017.41 1017.07 1016.72 1016.36 1015.97 1015.53 1015.06 1014.54 1013.98 1013.38 1012.74 1012.07 1011.39 1010.70 1010.02 1009.36 1008.73 1008.16 1007.64 1007.21 1006.85 1006.59 1006.44 1006.38 1006.44 1006.60 1006.87 1007.25 1007.74 1008.33 1009.03 1009.82 1010.70 1011.66
1018.97 1018.47 1018.02 1017.62 1017.26 1016.94 1016.65 1016.37 1016.09 1015.78 1015.44 1015.06 1014.62 1014.12 1013.57 1012.98 1012.34 1011.69 1011.02 1010.37 1009.74 1009.17 1008.66 1008.22 1007.87 1007.61 1007.46 1007.41 1007.47 1007.64 1007.92 1008.31 1008.82 1009.44 1010.16 1010.99 1011.91 1012.91
1019.00 1018.45 1017.94 1017.49 1017.11 1016.79 1016.54 1016.32 1016.13 1015.94 1015.72 1015.47 1015.16 1014.78 1014.34 1013.83 1013.27 1012.66 1012.03 1011.41 1010.80 1010.23 1009.72 1009.29 1008.94 1008.68 1008.52 1008.47 1008.53 1008.70 1008.99 1009.40 1009.92 1010.57 1011.32 1012.18 1013.13 1014.16
Thickness
5126 5127 5129 5134 5140 5149 5161 5175 5192 5215 5239 5256 5270 5285 5299 5319 5343 5368 5398 5429 5458 5486 5513 5539 5563 5585 5606 5623 5638 5651 5659 5666 5670 5673 5674 5675 5675 5675
5130 5132 5135 5140 5146 5154 5163 5174 5187 5203 5224 5244 5259 5274 5290 5310 5333 5358 5388 5418 5447 5475 5503 5528 5551 5574 5594 5612 5628 5640 5650 5657 5663 5666 5668 5669 5669 5669
5129 5131 5136 5141 5148 5156 5164 5174 5186 5199 5216 5235 5250 5266 5283 5304 5327 5352 5380 5409 5440 5467 5493 5518 5541 5563 5583 5602 5616 5630 5640 5646 5653 5658 5660 5661 5662 5663
5124 5128 5132 5139 5146 5155 5164 5173 5184 5196 5210 5226 5243 5260 5278 5298 5321 5347 5374 5403 5432 5460 5484 5508 5531 5553 5573 5590 5606 5620 5629 5635 5641 5647 5651 5654 5656 5656
5119 5123 5128 5135 5143 5152 5161 5171 5182 5193 5205 5220 5237 5255 5274 5293 5316 5343 5370 5397 5425 5452 5477 5500 5523 5543 5561 5578 5595 5609 5620 5627 5631 5639 5642 5645 5646 5649
5117 5120 5125 5132 5140 5149 5159 5168 5178 5189 5202 5217 5233 5250 5268 5288 5310 5336 5364 5392 5418 5445 5470 5494 5515 5533 5551 5567 5584 5600 5610 5616 5624 5631 5637 5638 5640 5642
5117 5120 5125 5132 5140 5148 5156 5165 5174 5185 5198 5213 5228 5244 5262 5281 5301 5325 5352 5382 5412 5438 5463 5488 5510 5527 5542 5557 5573 5588 5601 5610 5619 5626 5631 5633 5635 5637
5121 5124 5128 5135 5142 5150 5157 5164 5172 5182 5194 5208 5223 5238 5254 5272 5293 5317 5342 5372 5407 5431 5455 5481 5502 5520 5534 5550 5566 5581 5594 5605 5613 5620 5626 5629 5631 5632
5126 5129 5133 5139 5147 5154 5160 5167 5174 5183 5193 5203 5218 5233 5249 5267 5288 5311 5334 5358 5390 5418 5443 5474 5497 5515 5529 5543 5557 5572 5586 5598 5606 5613 5619 5623 5626 5628
5133 5135 5139 5144 5151 5159 5165 5171 5179 5187 5194 5204 5217 5231 5246 5264 5284 5305 5326 5353 5383 5412 5436 5467 5489 5508 5523 5536 5549 5565 5580 5591 5600 5607 5613 5618 5622 5624
5143 5143 5145 5150 5157 5164 5170 5176 5184 5192 5199 5208 5220 5233 5248 5264 5282 5302 5324 5349 5383 5411 5430 5456 5480 5501 5516 5529 5542 5556 5571 5583 5593 5601 5607 5612 5615 5616
5152 5152 5153 5157 5162 5168 5174 5180 5189 5196 5203 5213 5224 5237 5251 5266 5283 5299 5316 5339 5368 5401 5419 5444 5469 5490 5507 5520 5534 5548 5562 5574 5585 5593 5599 5604 5607 5609
5159 5159 5161 5163 5167 5172 5178 5184 5191 5199 5206 5216 5228 5240 5254 5269 5284 5300 5316 5332 5354 5384 5405 5428 5455 5478 5499 5512 5526 5541 5556 5568 5577 5584 5591 5597 5601 5605
5164 5164 5166 5168 5172 5176 5182 5188 5195 5202 5210 5219 5231 5243 5256 5271 5286 5302 5318 5333 5350 5371 5392 5413 5441 5465 5487 5504 5518 5532 5546 5558 5568 5577 5583 5588 5592 5597
5169 5169 5170 5173 5176 5181 5186 5192 5198 5206 5213 5222 5232 5244 5257 5272 5289 5306 5323 5338 5354 5371 5388 5408 5430 5451 5474 5492 5508 5523 5534 5545 5558 5568 5575 5580 5585 5589
5177 5176 5176 5178 5181 5185 5190 5196 5201 5207 5214 5223 5233 5245 5259 5275 5291 5306 5323 5338 5356 5372 5387 5404 5424 5444 5464 5482 5498 5513 5525 5534 5546 5556 5563 5568 5572 5578
5183 5182 5183 5184 5187 5190 5194 5198 5204 5210 5217 5226 5235 5247 5260 5275 5290 5305 5320 5336 5351 5365 5380 5397 5416 5433 5450 5469 5486 5500 5513 5523 5532 5542 5548 5549 5552 5561
5190 5188 5187 5188 5189 5192 5195 5200 5205 5211 5217 5226 5236 5246 5258 5272 5287 5302 5317 5331 5344 5357 5371 5387 5406 5426 5442 5455 5464 5483 5498 5508 5515 5525 5535 5538 5533 5537
5196 5193 5191 5190 5191 5194 5197 5201 5205 5211 5217 5226 5235 5245 5257 5270 5283 5297 5311 5325 5338 5351 5364 5378 5395 5417 5435 5443 5449 5464 5482 5494 5501 5507 5514 5521 5520 5518
5201 5198 5196 5194 5194 5196 5198 5202 5206 5212 5218 5226 5235 5244 5254 5266 5278 5290 5303 5316 5330 5343 5357 5370 5384 5400 5420 5430 5437 5446 5462 5478 5489 5493 5494 5497 5498 5499
5205 5202 5200 5198 5197 5197 5199 5202 5206 5211 5216 5224 5233 5241 5251 5261 5271 5282 5295 5307 5321 5334 5347 5360 5372 5387 5402 5417 5426 5431 5441 5455 5470 5481 5485 5486 5484 5482
5207 5206 5204 5202 5200 5199 5200 5202 5206 5211 5216 5222 5229 5237 5245 5255 5264 5275 5286 5298 5310 5323 5336 5349 5363 5378 5392 5406 5413 5418 5426 5435 5444 5455 5465 5476 5481 5477
5209 5208 5207 5206 5204 5202 5201 5202 5204 5209 5213 5217 5223 5230 5238 5247 5256 5266 5276 5287 5299 5311 5325 5338 5351 5364 5376 5388 5398 5404 5411 5419 5427 5435 5439 5449 5460 5462